Погода в Варзуге

Погода в Варзуге : погода сейчас, прогноз погоды и архив. Всё, что Вы хотите узнать о погоде в Варзуге!

Поиск расширенной информации на нашем сайте:

Другие новости

Новости СМИ2

Главная страница сайта

Новости сайта

03.07.2017

Напоминаем, что на нашем специализированном сайте Метеоцентр.Азия вы можете получить высокодетализированные автоматические прогнозы погоды по пунктам России, СНГ и мира в авиационном формате (включающие направление и скорость ветра, видимость, явления погоды, количество и форму облачности, нижнюю и верхнюю границу облачности).

Рекомендуем: предлагаем помещения: купить офис в БЦ Школа Журналистов у метро Тверская

Погода в Варзуге - сегодня

Время (UTC), дата Ветер
(°,м/с) 
Видим.   Явления Облачность Т
(°С)
Тd
(°С)
f(%) Тe
(°С)
Pmin
(гПа)
dP
(гПа)
Po
(мм)
O2
(г/м3)
Тmin Tmax R s Состояние
почвы
12 16.06.18 130 (ЮВ) 1-2  н/о    н/о 
+12.5 +8.3 76 +14  1015.4  0.2  761  292           
15 16.06.18 110 (В) 3-4  н/о    н/о 
+11.8 +8.7 81 +12  1015.4  761  292           
21 16.06.18 090 (В) 3-4  н/о    н/о 
+11.5 +9.5 88 +11  1016  0.4  761  293           
00 17.06.18 110 (В) 3-4  н/о    н/о 
+11.1 +8.7 85 +11  1016.1  0.2  762  293           
09 17.06.18 270 (З) 1-2  н/о    н/о 
+15.3 +8.1 62 +17  1018.1  0.6  763  290           
12 17.06.18 130 (ЮВ) 1-2  н/о    н/о 
+16.2 +9.8 66 +19  1018.1  763  289           
15 17.06.18 120 (ЮВ) 2-2  н/о    н/о 
+16.9 +9.2 60 +18  1018.1  0.1  763  288           
21 17.06.18 090 (В) 1-2  н/о    н/о 
+10.9 +6.1 72 +12  1018  763  295           
00 18.06.18 080 (В) 2-2  н/о    н/о 
+9.4 +6 79 +9  1017.9  0.1  763  296           
09 18.06.18 120 (ЮВ) 6-8{11}  н/о    н/о 
+12.5 +7.6 72 +11  1015.3  -1.4  761  292           
12 18.06.18 110 (В) 6-8  н/о    н/о 
+13.5 +7.2 66 +13  1013.2  -2.1  759  290           
21 18.06.18 200 (Ю) 3-6{11}  н/о    н/о 
+12.1 +9.4 84 +12  1007.4  -0.9  755  290           
00 19.06.18 110 (В) 3-4  н/о    н/о 
+10.5 +9.2 92 +10  1005.9  -1.5  754  291           
09 19.06.18 120 (ЮВ) 2-3  н/о    н/о 
+12 +10.6 91 +14  1001.8  -1.4  751  288           
12 19.06.18 130 (ЮВ) 2-2  н/о    н/о 
+13.1 +11.3 89 +17  999.8  -2  749  286           
15 19.06.18 110 (В) 6-8  н/о    н/о 
+12.1 +11.2 94 +14  997.6  -2.2  748  286           
21 19.06.18 090 (В) 3-4  н/о    н/о 
+12.4 +12 97 +16  992.4  -2.8  744  284           
00 20.06.18 080 (В) 2-2  н/о    н/о 
+13.1 +12.2 94 +18  990.2  -2.2  742  283           
09 20.06.18 300 (СЗ) 2-2  н/о    н/о 
+12 +10.7 92 +14  988.8  1.2  741  284           
12 20.06.18 270 (З) 4-4  н/о    н/о 
+12.7 +11.3 91 +15  989.3  741  283           
15 20.06.18 280 (З) 4-5  н/о    н/о 
+12.1 +10.6 91 +14  990.2  0.9  742  284           
21 20.06.18 290 (З) 6-7{10}  н/о    н/о 
+11.5 +10 90 +11  991.4  0.7  743  285           
00 21.06.18 290 (З) 5-6  н/о    н/о 
+11.4 +10.2 92 +12  991.9  0.6  743  286           
09 21.06.18 280 (З) 6-8  н/о    н/о 
+10.5 +7.7 83 +9  996.9  747  289           
15 21.06.18 270 (З) 6-7  н/о    н/о 
+11.8 +6.7 71 +11  1000.1  1.5  750  288           
Время (UTC), дата Ветер
(°,м/с) 
Видим.   Явления Облачность Т
(°С)
Тd
(°С)
f(%) Тe
(°С)
Pmin
(гПа)
dP
(гПа)
Po
(мм)
O2
(г/м3)
Тmin Tmax R s Состояние
почвы

Для получения пояснительной информации подведите курсор к названию столбца.

ПОГОДА в Варзуге - архив

Всё, что Вы хотите узнать о погоде в Варзуге - удобно и подробно!

Выберите нужную дату (начиная с 1 января 2015* года) и нажмите кнопку "Найти".
Будут отображены архивные сводки погоды по пункту Варзуга, начиная с указанной даты.


Отображать данные в формате CSV (для использования в таблицах Excel)


Внимание! Наш архив погоды предназначен исключительно для личного некоммерческого использования в познавательных целях. Если Вам необходимы официальные справки о состоянии погоды (для производственных, юридических, коммерческих и т.п. целей), обращайтесь в органы Росгидромета.

*Примечание: данная дата относится к архиву по метеостанциям СССР (Россия, СНГ, Балтия).
Архив по метеостанциям Зарубежной Европы и Азии (кроме Китая) хранится 10 дней, по другим регионам земного шара (Китай, Африка, Америка, Австралия, Океания) - 1 день.

Варзуга - район местоположения метеостанции


Название, широта, долгота, высота метеостанции:
Варзуга 66.4°ш. 36.6°д. 6 м над ур. моря [Российская Федерация]

Дополнительная информация

В oтличие oт бoльшинства пoгoдных сайтoв мы публикуем пoдрoбную метеoинфoрмацию в детальнoм прoфессиoнальнoм фoрмате.

Характеристики температуры и влажнoсти вoздуха измеряются на высoте 2 м в тени вдали oт зданий и деревьев.
Скoрoсть ветра измеряется на высoте 10 м (на урoвне рoста челoвека скoрoсть ветра ниже в 1.5-2 раза). Если метеoстанция нахoдится в гoрoде или в лесу, тo скoрoсть ветра занижена на 2-4 м/с пo сравнению с oткрытым местoм. Скoрoсть ветра над акватoриями крупных рек и oзёр, а также на вершинах хoлмoв на 2-5 м/с выше, чем в oбычных услoвиях.
Атмoсфернoе давление в разных тoчках местнoсти мoжет значительнo oтличаться oт давления на метеoстанции, в зависимoсти oт услoвий рельефа (при пoдъёме на 10 м давление пoнижается примернo на 1 мм рт.ст.).